,,Stat6,,Stat2,,Stat8,,Stat9,,Stat10,,Wind1,,Wind1,
time,status,PA1M_AVG,status,PR1M_SUM,status,RH1M_AVG,status,SR1M_AVG,status,TA1M_AVG,status,W1dAve1m,status,W1sAve1m,
2008-05-14, 00:00:00,VALID,918.345,VALID,0,VALID,100,VALID,-0.0679233,VALID,19.4567,VALID,15,VALID,0,
2008-05-14, 00:01:00,VALID,918.337,VALID,0,VALID,100,VALID,-0.0339617,VALID,19.414,VALID,15,VALID,0,
2008-05-14, 00:02:00,VALID,918.358,VALID,0,VALID,100,VALID,-0.0849042,VALID,19.3397,VALID,15,VALID,0,
2008-05-14, 00:03:00,VALID,918.376,VALID,0,VALID,100,VALID,-0.0339617,VALID,19.288,VALID,15,VALID,0,
2008-05-14, 00:04:00,VALID,918.4,VALID,0,VALID,100,VALID,-0.0339617,VALID,19.2456,VALID,15,VALID,0,
2008-05-14, 00:05:00,VALID,918.417,VALID,0,VALID,100,VALID,-0.0849042,VALID,19.2199,VALID,15,VALID,0,
2008-05-14, 00:06:00,VALID,918.434,VALID,0,VALID,100,VALID,-0.0339617,VALID,19.1844,VALID,15,VALID,0,
2008-05-14, 00:07:00,VALID,918.431,VALID,0,VALID,100,VALID,-0.0679233,VALID,19.136,VALID,15,VALID,0,
2008-05-14, 00:08:00,VALID,918.431,VALID,0,VALID,100,VALID,-0.0339617,VALID,19.1103,VALID,15,VALID,0,
2008-05-14, 00:09:00,VALID,918.45,VALID,0,VALID,100,VALID,-0.0679233,VALID,19.152,VALID,15,VALID,0,
2008-05-14, 00:10:00,VALID,918.455,VALID,0,VALID,100,VALID,-0.0679233,VALID,19.2099,VALID,15,VALID,0,
2008-05-14, 00:11:00,VALID,918.469,VALID,0,VALID,100,VALID,-0.0339617,VALID,19.262,VALID,15,VALID,0,
2008-05-14, 00:12:00,VALID,918.474,VALID,0,VALID,100,VALID,-0.0339617,VALID,19.3402,VALID,15,VALID,0,
2008-05-14, 00:13:00,VALID,918.47,VALID,0,VALID,100,VALID,-0.0509425,VALID,19.4248,VALID,15,VALID,0,
2008-05-14, 00:14:00,VALID,918.457,VALID,0,VALID,100,VALID,-0.101885,VALID,19.451,VALID,15,VALID,0,
2008-05-14, 00:15:00,VALID,918.447,VALID,0,VALID,100,VALID,-0.0849042,VALID,19.3272,VALID,15,VALID,0,
2008-05-14, 00:16:00,VALID,918.449,VALID,0,VALID,100,VALID,-0.0849042,VALID,19.1425,VALID,15,VALID,0,
2008-05-14, 00:17:00,VALID,918.474,VALID,0,VALID,100,VALID,-0.0849042,VALID,19.1036,VALID,15,VALID,0,
2008-05-14, 00:18:00,VALID,918.497,VALID,0,VALID,100,VALID,-0.0849042,VALID,19.1517,VALID,15,VALID,0,
2008-05-14, 00:19:00,VALID,918.504,VALID,0,VALID,100,VALID,-0.0849042,VALID,19.266,VALID,15,VALID,0,
2008-05-14, 00:20:00,VALID,918.518,VALID,0,VALID,100,VALID,-0.0849042,VALID,19.3496,VALID,15,VALID,0,
2008-05-14, 00:21:00,VALID,918.526,VALID,0,VALID,100,VALID,-0.0509425,VALID,19.3724,VALID,15,VALID,0,
2008-05-14, 00:22:00,VALID,918.531,VALID,0,VALID,100,VALID,-0.0339617,VALID,19.3921,VALID,15,VALID,0,
2008-05-14, 00:23:00,VALID,918.526,VALID,0,VALID,100,VALID,-0.0679233,VALID,19.4113,VALID,14,VALID,0,
2008-05-14, 00:24:00,VALID,918.518,VALID,0,VALID,100,VALID,-0.0339617,VALID,19.4497,VALID,4,VALID,0,
2008-05-14, 00:25:00,VALID,918.481,VALID,0,VALID,100,VALID,-0.0679233,VALID,19.46,VALID,3,VALID,0,
2008-05-14, 00:26:00,VALID,918.471,VALID,0,VALID,100,VALID,-0.0509425,VALID,19.4375,VALID,3,VALID,0,
2008-05-14, 00:27:00,VALID,918.467,VALID,0,VALID,100,VALID,-0.0679233,VALID,19.4342,VALID,3,VALID,0,
2008-05-14, 00:28:00,VALID,918.447,VALID,0,VALID,100,VALID,-0.0679233,VALID,19.4278,VALID,4,VALID,0.0506904,
2008-05-14, 00:29:00,VALID,918.424,VALID,0,VALID,100,VALID,-0.0849042,VALID,19.4213,VALID,24,VALID,0,
2008-05-14, 00:30:00,VALID,918.41,VALID,0,VALID,100,VALID,-0.0679233,VALID,19.4113,VALID,51,VALID,0,
2008-05-14, 00:31:00,VALID,918.409,VALID,0,VALID,100,VALID,-0.0679233,VALID,19.3893,VALID,49,VALID,0,
2008-05-14, 00:32:00,VALID,918.406,VALID,0,VALID,100,VALID,-0.101885,VALID,19.3828,VALID,25,VALID,0.580078,
2008-05-14, 00:33:00,VALID,918.37,VALID,0,VALID,100,VALID,-0.0849042,VALID,19.3694,VALID,24,VALID,0.419034,
2008-05-14, 00:34:00,VALID,918.303,VALID,0,VALID,100,VALID,-0.0339617,VALID,19.3432,VALID,24,VALID,0.528646,
2008-05-14, 00:35:00,VALID,918.277,VALID,0,VALID,100,VALID,-0.0509425,VALID,19.3072,VALID,24,VALID,0.408984,
2008-05-14, 00:36:00,VALID,918.288,VALID,0,VALID,100,VALID,-0.0339617,VALID,19.262,VALID,25,VALID,0.208651,
2008-05-14, 00:37:00,VALID,918.313,VALID,0,VALID,100,VALID,-0.0339617,VALID,19.2483,VALID,19,VALID,0.468387,
2008-05-14, 00:38:00,VALID,918.329,VALID,0,VALID,100,VALID,0.0339617,VALID,19.2449,VALID,18,VALID,0.237464,
2008-05-14, 00:39:00,VALID,918.345,VALID,0,VALID,100,VALID,0.0509425,VALID,19.2344,VALID,18,VALID,0.583705,
2008-05-14, 00:40:00,VALID,918.308,VALID,0,VALID,100,VALID,0.0339617,VALID,19.2179,VALID,24,VALID,0.705221,
2008-05-14, 00:41:00,VALID,918.295,VALID,0,VALID,100,VALID,0.0169808,VALID,19.173,VALID,25,VALID,0.561357,
2008-05-14, 00:42:00,VALID,918.286,VALID,0,VALID,100,VALID,0.0339617,VALID,19.1403,VALID,25,VALID,0.395167,
2008-05-14, 00:43:00,VALID,918.258,VALID,0,VALID,100,VALID,0.0169808,VALID,19.0919,VALID,26,VALID,0.395275,
2008-05-14, 00:44:00,VALID,918.24,VALID,0,VALID,100,VALID,0,VALID,19.1248,VALID,46,VALID,0.516335,
2008-05-14, 00:45:00,VALID,918.244,VALID,0,VALID,100,VALID,0,VALID,19.1343,VALID,46,VALID,0.0754616,
2008-05-14, 00:46:00,VALID,918.236,VALID,0,VALID,100,VALID,0.0169808,VALID,19.1273,VALID,46,VALID,0,
2008-05-14, 00:47:00,VALID,918.229,VALID,0,VALID,100,VALID,0.0169808,VALID,19.144,VALID,46,VALID,0,
2008-05-14, 00:48:00,VALID,918.252,VALID,0,VALID,100,VALID,0.0169808,VALID,19.1271,VALID,46,VALID,0,
2008-05-14, 00:49:00,VALID,918.277,VALID,0,VALID,100,VALID,0.0169808,VALID,19.1246,VALID,46,VALID,0,
2008-05-14, 00:50:00,VALID,918.279,VALID,0,VALID,100,VALID,0,VALID,19.0986,VALID,46,VALID,0,
2008-05-14, 00:51:00,VALID,918.281,VALID,0,VALID,100,VALID,0.0339617,VALID,19.0659,VALID,46,VALID,0,
2008-05-14, 00:52:00,VALID,918.25,VALID,0,VALID,100,VALID,0,VALID,19.0979,VALID,46,VALID,0,
2008-05-14, 00:53:00,VALID,918.25,VALID,0,VALID,100,VALID,0.0169808,VALID,19.1728,VALID,46,VALID,0,
2008-05-14, 00:54:00,VALID,918.256,VALID,0,VALID,100,VALID,0,VALID,19.1788,VALID,46,VALID,0,
2008-05-14, 00:55:00,VALID,918.285,VALID,0,VALID,100,VALID,0.0169808,VALID,19.1046,VALID,46,VALID,0.333212,
2008-05-14, 00:56:00,VALID,918.294,VALID,0,VALID,100,VALID,0.0339617,VALID,19.1313,VALID,46,VALID,0,
2008-05-14, 00:57:00,VALID,918.292,VALID,0,VALID,100,VALID,0,VALID,19.1343,VALID,46,VALID,0,
2008-05-14, 00:58:00,VALID,918.254,VALID,0,VALID,100,VALID,0,VALID,19.1111,VALID,46,VALID,0,
2008-05-14, 00:59:00,VALID,918.219,VALID,0,VALID,100,VALID,0.0169808,VALID,19.0789,VALID,46,VALID,0,
2008-05-14, 01:00:00,VALID,918.207,VALID,0,VALID,100,VALID,0,VALID,19.0565,VALID,46,VALID,0,
2008-05-14, 01:01:00,VALID,918.202,VALID,0,VALID,100,VALID,0.0339617,VALID,18.9457,VALID,46,VALID,0,
2008-05-14, 01:02:00,VALID,918.184,VALID,0,VALID,100,VALID,0.0169808,VALID,18.8678,VALID,46,VALID,0,
2008-05-14, 01:03:00,VALID,918.142,VALID,0,VALID,100,VALID,0,VALID,18.8359,VALID,46,VALID,0,
2008-05-14, 01:04:00,VALID,918.095,VALID,0,VALID,100,VALID,0,VALID,18.8002,VALID,46,VALID,0,
2008-05-14, 01:05:00,VALID,918.075,VALID,0,VALID,100,VALID,0.0169808,VALID,18.784,VALID,46,VALID,0,
2008-05-14, 01:06:00,VALID,918.05,VALID,0,VALID,100,VALID,0.0169808,VALID,18.7251,VALID,46,VALID,0,
2008-05-14, 01:07:00,VALID,918.029,VALID,0,VALID,100,VALID,0.0339617,VALID,18.7154,VALID,46,VALID,0,
2008-05-14, 01:08:00,VALID,918.018,VALID,0,VALID,100,VALID,0.0509425,VALID,18.7054,VALID,46,VALID,0,
2008-05-14, 01:09:00,VALID,918.012,VALID,0,VALID,100,VALID,0,VALID,18.6899,VALID,46,VALID,0,
2008-05-14, 01:10:00,VALID,918.009,VALID,0,VALID,100,VALID,0.0339617,VALID,18.6633,VALID,46,VALID,0,
2008-05-14, 01:11:00,VALID,918.011,VALID,0,VALID,100,VALID,0.0679233,VALID,18.6603,VALID,46,VALID,0,
2008-05-14, 01:12:00,VALID,917.99,VALID,0,VALID,100,VALID,0.0679233,VALID,18.6797,VALID,46,VALID,0,
2008-05-14, 01:13:00,VALID,917.944,VALID,0,VALID,100,VALID,0.0169808,VALID,18.7281,VALID,46,VALID,0,
2008-05-14, 01:14:00,VALID,917.911,VALID,0,VALID,100,VALID,0,VALID,18.7703,VALID,47,VALID,0,
2008-05-14, 01:15:00,VALID,917.885,VALID,0,VALID,100,VALID,0.0169808,VALID,18.6308,VALID,59,VALID,0.256669,
2008-05-14, 01:16:00,VALID,917.871,VALID,0,VALID,100,VALID,0.0509425,VALID,18.4719,VALID,58,VALID,0.535937,
2008-05-14, 01:17:00,VALID,917.88,VALID,0,VALID,100,VALID,0.0169808,VALID,18.2905,VALID,58,VALID,0.486049,
2008-05-14, 01:18:00,VALID,917.883,VALID,0,VALID,100,VALID,0.0169808,VALID,18.3517,VALID,58,VALID,0.497396,
2008-05-14, 01:19:00,VALID,917.866,VALID,0,VALID,100,VALID,0.0509425,VALID,18.4754,VALID,41,VALID,0.635719,
2008-05-14, 01:20:00,VALID,917.862,VALID,0,VALID,100,VALID,0.0679233,VALID,18.5921,VALID,22,VALID,0.609747,
2008-05-14, 01:21:00,VALID,917.89,VALID,0,VALID,100,VALID,0.0509425,VALID,18.6109,VALID,16,VALID,0.237043,
2008-05-14, 01:22:00,VALID,917.935,VALID,0,VALID,100,VALID,0.0169808,VALID,18.5819,VALID,16,VALID,0.0120046,
2008-05-14, 01:23:00,VALID,917.96,VALID,0,VALID,100,VALID,-0.0169808,VALID,18.5081,VALID,16,VALID,0,
2008-05-14, 01:24:00,VALID,917.947,VALID,0,VALID,100,VALID,-0.0509425,VALID,18.4634,VALID,16,VALID,0,
2008-05-14, 01:25:00,VALID,917.936,VALID,0,VALID,100,VALID,-0.0509425,VALID,18.3758,VALID,16,VALID,0,
2008-05-14, 01:26:00,VALID,917.897,VALID,0,VALID,100,VALID,-0.0679233,VALID,18.2525,VALID,22,VALID,0.485491,
2008-05-14, 01:27:00,VALID,917.876,VALID,0,VALID,100,VALID,-0.0339617,VALID,18.2199,VALID,24,VALID,0.231399,
2008-05-14, 01:28:00,VALID,917.874,VALID,0,VALID,100,VALID,-0.0679233,VALID,18.3304,VALID,24,VALID,0.0342685,
2008-05-14, 01:29:00,VALID,917.872,VALID,0,VALID,100,VALID,-0.101885,VALID,18.4117,VALID,24,VALID,0,
2008-05-14, 01:30:00,VALID,917.857,VALID,0,VALID,100,VALID,-0.0679233,VALID,18.4603,VALID,24,VALID,0.0961682,
2008-05-14, 01:31:00,VALID,917.828,VALID,0,VALID,100,VALID,-0.0509425,VALID,18.4634,VALID,24,VALID,0,
2008-05-14, 01:32:00,VALID,917.802,VALID,0,VALID,100,VALID,-0.0849042,VALID,18.4698,VALID,24,VALID,0,
2008-05-14, 01:33:00,VALID,917.765,VALID,0,VALID,100,VALID,-0.0679233,VALID,18.4603,VALID,24,VALID,0,
2008-05-14, 01:34:00,VALID,917.729,VALID,0,VALID,100,VALID,-0.0679233,VALID,18.4634,VALID,24,VALID,0,
2008-05-14, 01:35:00,VALID,917.689,VALID,0,VALID,100,VALID,-0.101885,VALID,18.493,VALID,24,VALID,0,
2008-05-14, 01:36:00,VALID,917.64,VALID,0,VALID,100,VALID,-0.0849042,VALID,18.5183,VALID,24,VALID,0,
2008-05-14, 01:37:00,VALID,917.608,VALID,0,VALID,100,VALID,-0.0339617,VALID,18.5382,VALID,24,VALID,0,
2008-05-14, 01:38:00,VALID,917.599,VALID,0,VALID,100,VALID,-0.0509425,VALID,18.5347,VALID,24,VALID,0,
2008-05-14, 01:39:00,VALID,917.598,VALID,0,VALID,100,VALID,-0.0679233,VALID,18.5444,VALID,24,VALID,0,
2008-05-14, 01:40:00,VALID,917.595,VALID,0,VALID,100,VALID,-0.0679233,VALID,18.5444,VALID,24,VALID,0,
2008-05-14, 01:41:00,VALID,917.567,VALID,0,VALID,100,VALID,-0.0339617,VALID,18.5315,VALID,24,VALID,0,
2008-05-14, 01:42:00,VALID,917.543,VALID,0,VALID,100,VALID,-0.0509425,VALID,18.5122,VALID,24,VALID,0,
2008-05-14, 01:43:00,VALID,917.522,VALID,0,VALID,100,VALID,-0.0339617,VALID,18.4312,VALID,24,VALID,0,
2008-05-14, 01:44:00,VALID,917.512,VALID,0,VALID,100,VALID,-0.0509425,VALID,18.3693,VALID,24,VALID,0,
2008-05-14, 01:45:00,VALID,917.525,VALID,0,VALID,100,VALID,-0.0339617,VALID,18.3012,VALID,24,VALID,0,
2008-05-14, 01:46:00,VALID,917.563,VALID,0,VALID,100,VALID,0,VALID,18.275,VALID,24,VALID,0,
2008-05-14, 01:47:00,VALID,917.565,VALID,0,VALID,100,VALID,-0.0339617,VALID,18.275,VALID,24,VALID,0,
2008-05-14, 01:48:00,VALID,917.566,VALID,0,VALID,100,VALID,-0.0339617,VALID,18.2231,VALID,24,VALID,0,
2008-05-14, 01:49:00,VALID,917.56,VALID,0,VALID,100,VALID,-0.0509425,VALID,18.0804,VALID,24,VALID,0,
2008-05-14, 01:50:00,VALID,917.551,VALID,0,VALID,100,VALID,-0.0679233,VALID,18.0871,VALID,24,VALID,0,
2008-05-14, 01:51:00,VALID,917.555,VALID,0,VALID,100,VALID,-0.0509425,VALID,18.2074,VALID,24,VALID,0,
2008-05-14, 01:52:00,VALID,917.585,VALID,0,VALID,100,VALID,-0.0679233,VALID,18.3952,VALID,24,VALID,0,
2008-05-14, 01:53:00,VALID,917.604,VALID,0,VALID,100,VALID,-0.0339617,VALID,18.3823,VALID,24,VALID,0,
2008-05-14, 01:54:00,VALID,917.607,VALID,0,VALID,100,VALID,-0.0509425,VALID,18.285,VALID,24,VALID,0,
2008-05-14, 01:55:00,VALID,917.594,VALID,0,VALID,100,VALID,-0.0339617,VALID,18.1812,VALID,24,VALID,0,
2008-05-14, 01:56:00,VALID,917.564,VALID,0,VALID,100,VALID,-0.101885,VALID,17.9804,VALID,24,VALID,0,
2008-05-14, 01:57:00,VALID,917.53,VALID,0,VALID,100,VALID,-0.0679233,VALID,17.9055,VALID,24,VALID,0,
2008-05-14, 01:58:00,VALID,917.508,VALID,0,VALID,100,VALID,-0.0509425,VALID,17.8923,VALID,24,VALID,0,
2008-05-14, 01:59:00,VALID,917.497,VALID,0,VALID,100,VALID,-0.0849042,VALID,17.8798,VALID,24,VALID,0,
2008-05-14, 02:00:00,VALID,917.496,VALID,0,VALID,100,VALID,-0.0849042,VALID,17.915,VALID,24,VALID,0,
2008-05-14, 02:01:00,VALID,917.455,VALID,0,VALID,100,VALID,0,VALID,17.9269,VALID,26,VALID,0,
2008-05-14, 02:02:00,VALID,917.445,VALID,0,VALID,100,VALID,0.0339617,VALID,17.878,VALID,137,VALID,0.700994,
2008-05-14, 02:03:00,VALID,917.432,VALID,0,VALID,100,VALID,0.0849042,VALID,17.888,VALID,151,VALID,0.591388,
2008-05-14, 02:04:00,VALID,917.437,VALID,0,VALID,100,VALID,0.0509425,VALID,17.9269,VALID,141,VALID,0.360577,
2008-05-14, 02:05:00,VALID,917.427,VALID,0,VALID,100,VALID,0.0339617,VALID,17.9591,VALID,160,VALID,0.361555,
2008-05-14, 02:06:00,VALID,917.43,VALID,0,VALID,100,VALID,0.0849042,VALID,17.9751,VALID,158,VALID,0.00118886,
2008-05-14, 02:07:00,VALID,917.406,VALID,0,VALID,100,VALID,0.0509425,VALID,17.9718,VALID,152,VALID,0,
2008-05-14, 02:08:00,VALID,917.397,VALID,0,VALID,100,VALID,-0.0509425,VALID,17.9989,VALID,146,VALID,0,
2008-05-14, 02:09:00,VALID,917.401,VALID,0,VALID,100,VALID,-0.0849042,VALID,18.0126,VALID,156,VALID,0,
2008-05-14, 02:10:00,VALID,917.397,VALID,0,VALID,100,VALID,-0.0509425,VALID,18.0061,VALID,158,VALID,0,
2008-05-14, 02:11:00,VALID,917.374,VALID,0,VALID,100,VALID,-0.0849042,VALID,18.0028,VALID,158,VALID,0,
2008-05-14, 02:12:00,VALID,917.377,VALID,0,VALID,100,VALID,-0.0169808,VALID,17.9996,VALID,158,VALID,0.139353,
2008-05-14, 02:13:00,VALID,917.376,VALID,0,VALID,100,VALID,-0.101885,VALID,17.9769,VALID,158,VALID,0,
2008-05-14, 02:14:00,VALID,917.38,VALID,0,VALID,100,VALID,-0.0169808,VALID,17.9282,VALID,158,VALID,0,
2008-05-14, 02:15:00,VALID,917.386,VALID,0,VALID,100,VALID,-0.0679233,VALID,17.9218,VALID,158,VALID,0,
2008-05-14, 02:16:00,VALID,917.382,VALID,0,VALID,100,VALID,-0.0679233,VALID,17.9282,VALID,158,VALID,0,
2008-05-14, 02:17:00,VALID,917.385,VALID,0,VALID,100,VALID,-0.0339617,VALID,17.9021,VALID,158,VALID,0,
2008-05-14, 02:18:00,VALID,917.358,VALID,0,VALID,100,VALID,-0.0509425,VALID,17.8666,VALID,158,VALID,0,
2008-05-14, 02:19:00,VALID,917.328,VALID,0,VALID,100,VALID,-0.0339617,VALID,17.8796,VALID,158,VALID,0,
2008-05-14, 02:20:00,VALID,917.309,VALID,0,VALID,100,VALID,-0.0509425,VALID,17.8986,VALID,158,VALID,0,
2008-05-14, 02:21:00,VALID,917.274,VALID,0,VALID,100,VALID,-0.0509425,VALID,17.957,VALID,158,VALID,0,
2008-05-14, 02:22:00,VALID,917.262,VALID,0,VALID,100,VALID,-0.0509425,VALID,18.0188,VALID,158,VALID,0,
2008-05-14, 02:23:00,VALID,917.237,VALID,0,VALID,100,VALID,-0.0849042,VALID,18.042,VALID,158,VALID,0,
2008-05-14, 02:24:00,VALID,917.204,VALID,0,VALID,100,VALID,-0.0339617,VALID,18.0188,VALID,158,VALID,0,
2008-05-14, 02:25:00,VALID,917.167,VALID,0,VALID,100,VALID,-0.0849042,VALID,17.9282,VALID,158,VALID,0,
2008-05-14, 02:26:00,VALID,917.127,VALID,0,VALID,100,VALID,-0.0679233,VALID,17.7367,VALID,146,VALID,0.00390625,
2008-05-14, 02:27:00,VALID,917.105,VALID,0,VALID,100,VALID,-0.0679233,VALID,17.6396,VALID,80,VALID,0.0453506,
2008-05-14, 02:28:00,VALID,917.089,VALID,0,VALID,100,VALID,-0.0679233,VALID,17.6332,VALID,76,VALID,0,
2008-05-14, 02:29:00,VALID,917.103,VALID,0,VALID,100,VALID,-0.0679233,VALID,17.6945,VALID,72,VALID,0,
2008-05-14, 02:30:00,VALID,917.122,VALID,0,VALID,100,VALID,-0.0679233,VALID,17.5977,VALID,70,VALID,0,
2008-05-14, 02:31:00,VALID,917.139,VALID,0,VALID,100,VALID,-0.0509425,VALID,17.562,VALID,70,VALID,0,
2008-05-14, 02:32:00,VALID,917.141,VALID,0,VALID,100,VALID,-0.0849042,VALID,17.6072,VALID,40,VALID,0,
2008-05-14, 02:33:00,VALID,917.139,VALID,0,VALID,100,VALID,-0.0339617,VALID,17.8472,VALID,336,VALID,0,
2008-05-14, 02:34:00,VALID,917.111,VALID,0,VALID,100,VALID,-0.0679233,VALID,18.0063,VALID,336,VALID,0,
2008-05-14, 02:35:00,VALID,917.083,VALID,0,VALID,100,VALID,-0.0169808,VALID,18.0904,VALID,336,VALID,0,
2008-05-14, 02:36:00,VALID,917.058,VALID,0,VALID,100,VALID,-0.0339617,VALID,18.1358,VALID,336,VALID,0,
2008-05-14, 02:37:00,VALID,917.038,VALID,0,VALID,100,VALID,-0.0509425,VALID,18.1715,VALID,336,VALID,0,
2008-05-14, 02:38:00,VALID,917.026,VALID,0,VALID,100,VALID,-0.0679233,VALID,18.1585,VALID,336,VALID,0,
2008-05-14, 02:39:00,VALID,917.048,VALID,0,VALID,100,VALID,-0.0849042,VALID,18.149,INVALID,360,VALID,0,
2008-05-14, 02:40:00,VALID,917.067,VALID,0,VALID,100,VALID,-0.0509425,VALID,18.139,INVALID,360,VALID,0,
2008-05-14, 02:41:00,VALID,917.088,VALID,0,VALID,100,VALID,-0.0509425,VALID,18.1293,VALID,336,VALID,0,
2008-05-14, 02:42:00,VALID,917.088,VALID,0,VALID,100,VALID,-0.0509425,VALID,18.1386,VALID,336,VALID,0,
2008-05-14, 02:43:00,VALID,917.071,VALID,0,VALID,100,VALID,-0.0509425,VALID,18.1323,VALID,336,VALID,0,
2008-05-14, 02:44:00,VALID,917.056,VALID,0,VALID,100,VALID,-0.101885,VALID,18.152,VALID,336,VALID,0,
2008-05-14, 02:45:00,VALID,917.011,VALID,0,VALID,100,VALID,-0.101885,VALID,18.1782,VALID,336,VALID,0,
2008-05-14, 02:46:00,VALID,917.019,VALID,0,VALID,100,VALID,-0.0339617,VALID,18.1942,VALID,336,VALID,0,
2008-05-14, 02:47:00,VALID,917.01,VALID,0,VALID,100,VALID,-0.0509425,VALID,18.2166,INVALID,360,VALID,0,
2008-05-14, 02:48:00,VALID,917.01,VALID,0,VALID,100,VALID,-0.0509425,VALID,18.2264,VALID,336,VALID,0,
2008-05-14, 02:49:00,VALID,916.994,VALID,0,VALID,100,VALID,-0.0509425,VALID,18.2391,VALID,336,VALID,0,
2008-05-14, 02:50:00,VALID,916.976,VALID,0,VALID,100,VALID,-0.0679233,VALID,18.2328,VALID,336,VALID,0,
2008-05-14, 02:51:00,VALID,916.968,VALID,0,VALID,100,VALID,-0.0679233,VALID,18.1488,VALID,336,VALID,0,
2008-05-14, 02:52:00,VALID,916.952,VALID,0,VALID,100,VALID,-0.0849042,VALID,18.0807,INVALID,360,VALID,0,
2008-05-14, 02:53:00,VALID,916.935,VALID,0,VALID,100,VALID,-0.0679233,VALID,18.0744,INVALID,360,VALID,0,
2008-05-14, 02:54:00,VALID,916.908,VALID,0,VALID,100,VALID,-0.0849042,VALID,18.1193,INVALID,360,VALID,0,
2008-05-14, 02:55:00,VALID,916.901,VALID,0,VALID,100,VALID,-0.0679233,VALID,18.1812,VALID,291,VALID,0,
2008-05-14, 02:56:00,VALID,916.886,VALID,0,VALID,100,VALID,-0.0339617,VALID,18.2396,VALID,289,VALID,0,
2008-05-14, 02:57:00,VALID,916.9,VALID,0,VALID,100,VALID,-0.101885,VALID,18.2588,VALID,289,VALID,0,
2008-05-14, 02:58:00,VALID,916.892,VALID,0,VALID,100,VALID,-0.0849042,VALID,18.2655,VALID,289,VALID,0,
2008-05-14, 02:59:00,VALID,916.894,VALID,0,VALID,100,VALID,-0.101885,VALID,18.269,VALID,289,VALID,0,
2008-05-14, 03:00:00,VALID,916.88,VALID,0,VALID,100,VALID,-0.0509425,VALID,18.272,VALID,289,VALID,0,
2008-05-14, 03:01:00,VALID,916.886,VALID,0,VALID,100,VALID,-0.0849042,VALID,18.275,VALID,289,VALID,0,
2008-05-14, 03:02:00,VALID,916.899,VALID,0,VALID,100,VALID,-0.0679233,VALID,18.2558,VALID,289,VALID,0,
2008-05-14, 03:03:00,VALID,916.894,VALID,0,VALID,100,VALID,-0.0509425,VALID,18.2301,VALID,289,VALID,0,
2008-05-14, 03:04:00,VALID,916.893,VALID,0,VALID,100,VALID,-0.0849042,VALID,18.1814,VALID,289,VALID,0,
2008-05-14, 03:05:00,VALID,916.889,VALID,0,VALID,100,VALID,-0.0679233,VALID,18.1712,VALID,289,VALID,0,
2008-05-14, 03:06:00,VALID,916.895,VALID,0,VALID,100,VALID,-0.101885,VALID,18.1812,VALID,289,VALID,0,
2008-05-14, 03:07:00,VALID,916.875,VALID,0,VALID,100,VALID,-0.0509425,VALID,18.1847,VALID,289,VALID,0,
2008-05-14, 03:08:00,VALID,916.898,VALID,0,VALID,100,VALID,-0.0339617,VALID,18.1911,VALID,289,VALID,0,
2008-05-14, 03:09:00,VALID,916.916,VALID,0,VALID,100,VALID,-0.0679233,VALID,18.1877,VALID,289,VALID,0,
2008-05-14, 03:10:00,VALID,916.932,VALID,0,VALID,100,VALID,-0.0509425,VALID,18.1682,VALID,289,VALID,0,
2008-05-14, 03:11:00,VALID,916.951,VALID,0,VALID,100,VALID,-0.0339617,VALID,18.139,VALID,289,VALID,0,
2008-05-14, 03:12:00,VALID,916.939,VALID,0,VALID,100,VALID,-0.0169808,VALID,18.1131,VALID,289,VALID,0,
2008-05-14, 03:13:00,VALID,916.939,VALID,0,VALID,100,VALID,0,VALID,18.1064,VALID,289,VALID,0,
2008-05-14, 03:14:00,VALID,916.928,VALID,0,VALID,100,VALID,-0.0169808,VALID,18.0543,VALID,289,VALID,0,
2008-05-14, 03:15:00,VALID,916.93,VALID,0,VALID,100,VALID,-0.0509425,VALID,18.019,VALID,289,VALID,0,
2008-05-14, 03:16:00,VALID,916.92,VALID,0,VALID,100,VALID,-0.0169808,VALID,17.9963,VALID,289,VALID,0,
2008-05-14, 03:17:00,VALID,916.907,VALID,0,VALID,100,VALID,-0.0509425,VALID,17.9345,VALID,289,VALID,0,
2008-05-14, 03:18:00,VALID,916.902,VALID,0,VALID,100,VALID,0,VALID,17.8859,VALID,289,VALID,0,
2008-05-14, 03:19:00,VALID,916.91,VALID,0,VALID,100,VALID,0,VALID,17.8312,VALID,289,VALID,0,
2008-05-14, 03:20:00,VALID,916.931,VALID,0,VALID,100,VALID,-0.0169808,VALID,17.7856,VALID,289,VALID,0,
2008-05-14, 03:21:00,VALID,916.949,VALID,0,VALID,100,VALID,-0.0339617,VALID,17.7886,VALID,289,VALID,0,
2008-05-14, 03:22:00,VALID,916.97,VALID,0,VALID,100,VALID,-0.0339617,VALID,17.8113,VALID,289,VALID,0,
2008-05-14, 03:23:00,VALID,916.99,VALID,0,VALID,100,VALID,0,VALID,17.8337,VALID,289,VALID,0,
2008-05-14, 03:24:00,VALID,916.986,VALID,0,VALID,100,VALID,-0.0169808,VALID,17.8469,VALID,289,VALID,0,
2008-05-14, 03:25:00,VALID,917.007,VALID,0,VALID,100,VALID,-0.0339617,VALID,17.8504,VALID,289,VALID,0,
2008-05-14, 03:26:00,VALID,916.999,VALID,0,VALID,100,VALID,0,VALID,17.8469,VALID,289,VALID,0,
2008-05-14, 03:27:00,VALID,917.007,VALID,0,VALID,100,VALID,0,VALID,17.8701,VALID,289,VALID,0,
2008-05-14, 03:28:00,VALID,917.006,VALID,0,VALID,100,VALID,-0.0169808,VALID,17.8796,VALID,289,VALID,0,
2008-05-14, 03:29:00,VALID,916.999,VALID,0,VALID,100,VALID,-0.0339617,VALID,17.8859,VALID,289,VALID,0,
2008-05-14, 03:30:00,VALID,916.974,VALID,0,VALID,100,VALID,-0.0169808,VALID,17.8597,VALID,289,VALID,0,
2008-05-14, 03:31:00,VALID,916.95,VALID,0,VALID,100,VALID,-0.0169808,VALID,17.8564,VALID,301,VALID,0,
2008-05-14, 03:32:00,VALID,916.933,VALID,0,VALID,100,VALID,0,VALID,17.8402,VALID,315,VALID,0,
2008-05-14, 03:33:00,VALID,916.91,VALID,0,VALID,100,VALID,-0.0169808,VALID,17.8307,VALID,315,VALID,0,
2008-05-14, 03:34:00,VALID,916.918,VALID,0,VALID,100,VALID,-0.0339617,VALID,17.8407,VALID,315,VALID,0,
2008-05-14, 03:35:00,VALID,916.913,VALID,0,VALID,100,VALID,0,VALID,17.8532,VALID,315,VALID,0,
2008-05-14, 03:36:00,VALID,916.92,VALID,0,VALID,100,VALID,-0.0339617,VALID,17.8796,VALID,315,VALID,0,
2008-05-14, 03:37:00,VALID,916.942,VALID,0,VALID,100,VALID,0,VALID,17.8729,VALID,315,VALID,0,
2008-05-14, 03:38:00,VALID,916.936,VALID,0,VALID,100,VALID,-0.0169808,VALID,17.8599,VALID,315,VALID,0,
2008-05-14, 03:39:00,VALID,916.922,VALID,0,VALID,100,VALID,0,VALID,17.831,VALID,315,VALID,0,
2008-05-14, 03:40:00,VALID,916.889,VALID,0,VALID,100,VALID,-0.0509425,VALID,17.8277,VALID,315,VALID,0,
2008-05-14, 03:41:00,VALID,916.864,VALID,0,VALID,100,VALID,-0.0169808,VALID,17.831,VALID,315,VALID,0,
2008-05-14, 03:42:00,VALID,916.871,VALID,0,VALID,100,VALID,0,VALID,17.8277,VALID,315,VALID,0,
2008-05-14, 03:43:00,VALID,916.882,VALID,0,VALID,100,VALID,-0.0169808,VALID,17.8145,VALID,315,VALID,0,
2008-05-14, 03:44:00,VALID,916.892,VALID,0,VALID,100,VALID,0,VALID,17.7953,VALID,315,VALID,0,
2008-05-14, 03:45:00,VALID,916.912,VALID,0,VALID,100,VALID,-0.0679233,VALID,17.7529,VALID,315,VALID,0,
2008-05-14, 03:46:00,VALID,916.908,VALID,0,VALID,100,VALID,-0.0169808,VALID,17.7464,VALID,315,VALID,0,
2008-05-14, 03:47:00,VALID,916.88,VALID,0,VALID,100,VALID,0,VALID,17.7267,VALID,315,VALID,0,
2008-05-14, 03:48:00,VALID,916.857,VALID,0,VALID,100,VALID,-0.0339617,VALID,17.7399,VALID,315,VALID,0,
2008-05-14, 03:49:00,VALID,916.863,VALID,0,VALID,100,VALID,-0.0339617,VALID,17.749,VALID,315,VALID,0,
2008-05-14, 03:50:00,VALID,916.895,VALID,0,VALID,100,VALID,0,VALID,17.7784,VALID,315,VALID,0,